[[{"header":{"parameterUnit":"m.s-1","parameterCategory":1,"la1":30.2991,"la2":30.254,"lo1":-89.0895,"lo2":-89.0444,"dy":0.0017,"dx":0.0017,"nx":28,"ny":28,"refTime":"2025-06-07T09:00:00:Z","depth":0,"parameterNumber":2,"parameterNumberName":"U-component_of_WINDS"},"data":[0,0,0,0,0,0,0,0,0,0,0,0,0,0,0,0,0,0,0,0,0,0,0,0,0,0,0,0,0,0,0,0,0,0,0,0,0,0,0,0,0,0,0,0,0,0,0,0,0,0,0,0,0,0,0,0,0,0,2.6089,2.6089,0,2.6086,2.6085,2.6085,2.6078,2.6078,2.6078,2.6078,2.6074,2.6074,2.6074,0,0,0,0,0,0,0,0,0,0,0,0,0,2.6091,2.6091,2.6089,2.6089,2.6089,2.6086,2.6085,2.6085,2.6078,2.6078,2.6078,2.6077,2.6074,2.6074,2.6074,0,0,0,0,0,0,0,0,0,0,0,0,0,2.6089,2.6091,2.6089,2.6085,2.6085,2.6086,2.6085,2.6085,2.6078,2.6078,2.6078,2.6077,2.6074,2.6074,2.6074,2.6079,0,0,2.6074,2.6074,0,0,0,0,0,0,0,0,2.6089,2.6089,2.6086,2.6085,2.6085,2.6082,2.6085,2.6083,2.6078,2.6081,2.6078,2.6077,2.6077,2.6077,2.6076,2.6078,2.6078,2.6074,2.6074,2.6074,2.6074,0,0,0,0,0,0,0,2.6089,2.6089,2.6088,2.6086,2.6085,2.6083,2.6083,2.6084,2.608,2.608,2.608,2.6079,2.6076,2.6076,2.6076,2.6078,2.6074,2.6074,2.6074,2.6074,2.6084,2.6085,0,0,0,0,0,0,2.609,2.6089,2.6088,2.6088,2.6086,2.6084,2.6083,2.6083,2.608,2.6079,2.608,2.6079,2.6076,2.6076,2.6076,2.6082,2.6074,2.6074,2.6074,2.6084,2.6084,2.6085,0,0,0,0,0,0,2.609,2.609,2.6088,2.6088,2.6088,2.6084,2.6084,2.6083,2.6083,2.6079,2.6079,2.608,2.6076,2.6076,2.6078,2.6081,2.6074,2.6074,2.6084,2.6084,2.6085,2.6093,0,0,0,0,0,0,2.609,2.609,2.6092,2.6088,2.6088,2.609,2.6084,2.6083,2.6083,2.6082,2.608,2.6079,2.6076,2.6078,2.6078,2.6081,2.6074,2.6084,2.6084,2.6084,2.6092,2.6093,2.6094,0,0,0,0,0,2.609,2.6094,2.6092,2.6092,2.609,2.609,2.609,2.6086,2.6083,2.6085,2.6083,2.6079,2.6081,2.6078,2.6078,2.6082,2.6083,2.6084,2.6084,2.6092,2.6093,2.6094,0,0,0,0,0,0,2.6098,2.6094,2.6091,2.6094,2.6093,2.6089,2.6091,2.6088,2.6088,2.6087,2.6082,2.6082,2.6085,2.6083,2.6081,2.6086,2.6082,2.6082,2.6087,2.6088,2.6089,2.609,2.6074,0,0,0,0,0,2.61,2.6101,2.6097,2.61,2.6099,2.6095,2.6096,2.6093,2.6091,2.6091,2.6088,2.6087,2.6087,2.6088,2.6088,2.6092,2.6091,2.6094,2.6095,2.6096,2.6097,2.6099,2.61,2.6086,2.6086,2.6086,0,0,2.6104,2.6102,2.6103,2.6101,2.61,2.6101,2.6095,2.6096,2.6097,2.6091,2.6093,2.6091,2.6089,2.6093,2.6094,2.6091,2.61,2.6097,2.6097,2.6098,2.61,2.6101,2.6102,2.6087,2.6087,2.6087,0,0,2.6113,2.6111,2.6113,2.6112,2.611,2.6107,2.6108,2.6105,2.6104,2.6106,2.6101,2.6102,2.6102,2.6101,2.6101,2.6109,2.6106,2.6109,2.6115,2.6117,2.6118,2.6119,2.6122,2.6123,2.611,2.611,2.611,0,2.6118,2.612,2.6115,2.6117,2.6116,2.6111,2.6113,2.6112,2.611,2.611,2.6108,2.6108,2.6107,2.611,2.6112,2.6111,2.6112,2.611,2.6118,2.6119,2.612,2.6123,2.6124,2.611,2.611,2.611,2.611,0,2.6127,2.6128,2.613,2.6128,2.6128,2.613,2.6126,2.6127,2.6124,2.6121,2.6123,2.6121,2.6121,2.6121,2.6118,2.6124,2.6123,2.6119,2.6114,2.6122,2.6125,2.6126,2.6111,2.6111,2.611,2.611,0,0,2.6141,2.6136,2.6137,2.6136,2.6134,2.6134,2.6136,2.6136,2.6136,2.6135,2.6137,2.6137,2.6134,2.6133,2.613,2.6132,2.6139,2.6129,2.6129,2.6131,2.6145,2.6148,2.615,2.6137,2.6137,2.6137,2.6146,0,2.6149,2.6152,2.6148,2.6151,2.6152,2.6147,2.6148,2.6147,2.6145,2.6145,2.6143,2.6143,2.6139,2.6139,2.614,2.6138,2.6142,2.6137,2.6138,2.6139,2.6139,2.6151,2.6154,2.6162,2.6146,2.6147,2.6147,0,2.6159,2.6158,2.6162,2.6159,2.6159,2.6161,2.616,2.616,2.6159,2.6157,2.6156,2.6153,2.6154,2.615,2.6152,2.6149,2.6149,2.6148,2.6148,2.6149,2.6143,2.6152,2.6164,2.6166,2.6148,2.6148,2.6148,0,2.6169,2.6169,2.6171,2.6171,2.6167,2.6168,2.6167,2.6165,2.6165,2.6164,2.6164,2.6164,2.6164,2.6163,2.616,2.6157,2.6163,2.6158,2.6162,2.6162,2.6164,2.6164,2.6177,2.6163,2.6163,2.6163,2.6163,0,2.6179,2.6181,2.6176,2.6177,2.618,2.6175,2.6178,2.6176,2.6175,2.6176,2.6171,2.6172,2.6167,2.6168,2.6165,2.6167,2.6167,2.6166,2.6166,2.6167,2.6167,2.6167,2.6167,2.6163,2.6163,2.6163,2.6163,0,2.6191,2.6187,2.6189,2.6186,2.6185,2.6187,2.6184,2.6185,2.6183,2.6184,2.6184,2.618,2.6181,2.6177,2.6177,2.6175,2.6179,2.6177,2.618,2.6179,2.6184,2.6184,2.6198,2.62,2.6184,2.6185,2.6185,0,2.6197,2.6199,2.6196,2.6196,2.6195,2.6196,2.6196,2.6191,2.6191,2.6189,2.6191,2.6191,2.6191,2.6192,2.6189,2.6189,2.6187,2.6192,2.6187,2.6189,2.6188,2.6188,2.6188,2.6194,2.6194,2.6194,2.6194,0,2.621,2.6208,2.6208,2.6207,2.6207,2.6207,2.6206,2.6206,2.6201,2.6202,2.6202,2.6202,2.6202,2.6202,2.6201,2.62,2.6196,2.6196,2.6197,2.6198,2.62,2.6199,2.6183,2.6195,2.6195,2.6195,2.6195,2.6195,2.622,2.6221,2.6219,2.6219,2.6218,2.6217,2.6218,2.6216,2.6216,2.6215,2.6213,2.6214,2.6212,2.6211,2.621,2.621,2.6208,2.6209,2.621,2.621,2.6211,2.6199,2.621,2.621,2.621,2.621,2.621,0,2.6232,2.6231,2.6231,2.623,2.623,2.6226,2.6225,2.6225,2.6226,2.6225,2.6224,2.6225,2.6225,2.6222,2.6222,2.6223,2.6222,2.6224,2.6224,2.6224,2.6213,2.6213,2.6225,2.6225,2.6225,2.6225,2.6225,2.6225,2.6239,2.6241,2.6239,2.6241,2.6239,2.624,2.624,2.6239,2.6238,2.6239,2.6239,2.6237,2.6235,2.6234,2.6234,2.6234,2.6234,2.6236,2.6235,2.6226,2.6224,2.6223,2.6222,2.6236,2.6236,2.6245,2.6245,2.6246]},{"header":{"parameterUnit":"m.s-1","parameterCategory":1,"la1":30.2991,"la2":30.254,"lo1":-89.0895,"lo2":-89.0444,"dy":0.0017,"dx":0.0017,"nx":28,"ny":28,"refTime":"2025-06-07T09:00:00:Z","depth":0,"parameterNumber":3,"parameterNumberName":"V-component_of_WINDS"},"data":[0,0,0,0,0,0,0,0,0,0,0,0,0,0,0,0,0,0,0,0,0,0,0,0,0,0,0,0,0,0,0,0,0,0,0,0,0,0,0,0,0,0,0,0,0,0,0,0,0,0,0,0,0,0,0,0,0,0,1.8949,1.8948,0,1.8909,1.8909,1.8909,1.8885,1.8884,1.8884,1.8884,1.8841,1.884,1.8839,0,0,0,0,0,0,0,0,0,0,0,0,0,1.9001,1.9,1.8949,1.8948,1.8948,1.891,1.8909,1.8908,1.8885,1.8884,1.8884,1.8884,1.8841,1.884,1.8839,0,0,0,0,0,0,0,0,0,0,0,0,0,1.8971,1.8999,1.8949,1.8931,1.8929,1.891,1.8909,1.8908,1.8885,1.8884,1.8884,1.8884,1.8842,1.884,1.8839,1.8832,0,0,1.8834,1.8833,0,0,0,0,0,0,0,0,1.8973,1.8969,1.8934,1.8933,1.893,1.8902,1.8911,1.8883,1.8885,1.8902,1.8884,1.8884,1.8861,1.8858,1.8851,1.883,1.8828,1.8834,1.8833,1.8832,1.8832,0,0,0,0,0,0,0,1.8975,1.8971,1.8933,1.8934,1.8931,1.8925,1.892,1.8906,1.8883,1.89,1.8898,1.8894,1.886,1.8852,1.885,1.8828,1.8834,1.8832,1.8831,1.8831,1.8799,1.8799,0,0,0,0,0,0,1.898,1.8973,1.8934,1.8932,1.8952,1.8924,1.8919,1.8911,1.8883,1.8878,1.8894,1.8893,1.8855,1.8851,1.8848,1.8838,1.8832,1.8831,1.883,1.8799,1.8799,1.8799,0,0,0,0,0,0,1.8981,1.8977,1.8936,1.8952,1.8946,1.8923,1.8914,1.891,1.8903,1.8878,1.8874,1.8891,1.8855,1.885,1.8836,1.8836,1.883,1.8828,1.8799,1.8799,1.8799,1.8819,0,0,0,0,0,0,1.8983,1.8978,1.8976,1.8952,1.8945,1.8926,1.8914,1.891,1.8901,1.8899,1.8874,1.887,1.8854,1.8839,1.8835,1.8834,1.8827,1.8799,1.8799,1.8799,1.8818,1.882,1.8821,0,0,0,0,0,1.8985,1.8982,1.8976,1.8971,1.8943,1.8926,1.8922,1.8905,1.8901,1.8898,1.8882,1.8871,1.8837,1.8838,1.8833,1.8832,1.8799,1.8799,1.8799,1.8818,1.882,1.8821,0,0,0,0,0,0,1.9005,1.8979,1.8971,1.8961,1.8946,1.8922,1.8918,1.8908,1.8893,1.8892,1.8871,1.8865,1.8853,1.8841,1.8842,1.8824,1.8817,1.8816,1.8832,1.8834,1.8835,1.8838,1.8826,0,0,0,0,0,1.9009,1.8999,1.8976,1.8969,1.8962,1.8941,1.8933,1.8922,1.8905,1.8898,1.8882,1.8865,1.8851,1.8842,1.8827,1.8817,1.881,1.8813,1.8815,1.8816,1.8816,1.8809,1.8809,1.88,1.88,1.88,0,0,1.9015,1.9,1.8994,1.8972,1.8959,1.8948,1.8936,1.8925,1.8916,1.8896,1.8882,1.887,1.885,1.8837,1.8831,1.8827,1.8817,1.8817,1.8818,1.8816,1.8809,1.881,1.8811,1.88,1.88,1.88,0,0,1.9022,1.9009,1.9002,1.899,1.8971,1.8957,1.8956,1.8933,1.8924,1.891,1.8895,1.8884,1.886,1.8846,1.8836,1.8838,1.8826,1.8833,1.8841,1.8834,1.8835,1.8836,1.8836,1.8836,1.8833,1.8833,1.8833,0,1.9032,1.9016,1.8999,1.8989,1.898,1.8962,1.8954,1.8943,1.892,1.8913,1.8909,1.8878,1.8864,1.8848,1.8848,1.8841,1.8837,1.8836,1.8837,1.8837,1.8837,1.8837,1.8837,1.8834,1.8834,1.8834,1.8834,0,1.9029,1.9018,1.9015,1.8994,1.8984,1.8975,1.8956,1.8948,1.8937,1.8924,1.8909,1.8891,1.8873,1.8868,1.8857,1.8851,1.8848,1.8841,1.8833,1.8839,1.8839,1.8838,1.8836,1.8835,1.8835,1.8835,0,0,1.9047,1.9018,1.9016,1.9007,1.8985,1.8975,1.8965,1.8948,1.8941,1.8926,1.8916,1.8896,1.8889,1.8878,1.8865,1.8859,1.8861,1.8852,1.8851,1.8854,1.8852,1.8858,1.8858,1.8854,1.8854,1.8854,1.8854,0,1.9049,1.9032,1.9017,1.9004,1.8993,1.8977,1.8968,1.8953,1.894,1.8928,1.8914,1.89,1.8892,1.8885,1.8878,1.8862,1.886,1.8862,1.8844,1.8843,1.8849,1.8858,1.8864,1.8864,1.8853,1.8853,1.8853,0,1.905,1.9037,1.9023,1.9002,1.8997,1.899,1.8973,1.8962,1.8944,1.8935,1.8923,1.891,1.8898,1.8892,1.8874,1.8875,1.8867,1.8858,1.8857,1.8854,1.8848,1.8854,1.8864,1.8864,1.8853,1.8853,1.8853,0,1.9064,1.9042,1.9031,1.9023,1.8999,1.8994,1.8983,1.8966,1.8956,1.8941,1.8935,1.8918,1.8909,1.8896,1.8878,1.8875,1.8862,1.8854,1.8853,1.8854,1.885,1.8851,1.8859,1.8846,1.8846,1.8846,1.8846,0,1.9068,1.906,1.9037,1.903,1.9021,1.9003,1.8994,1.8982,1.8966,1.8956,1.8941,1.8931,1.8909,1.8897,1.8883,1.887,1.8866,1.8857,1.8854,1.8858,1.8859,1.8852,1.8851,1.8846,1.8846,1.8846,1.8846,0,1.9081,1.9065,1.9052,1.9031,1.9025,1.9019,1.9,1.8992,1.8979,1.8966,1.8962,1.8941,1.8926,1.8907,1.8885,1.8876,1.8864,1.8859,1.887,1.8868,1.8868,1.8868,1.8871,1.887,1.8859,1.8859,1.8859,0,1.9085,1.9079,1.9056,1.9049,1.9039,1.9028,1.9018,1.9001,1.8991,1.8971,1.8966,1.8949,1.8935,1.8911,1.8893,1.8876,1.887,1.8872,1.8868,1.8873,1.887,1.887,1.8869,1.8874,1.8874,1.8874,1.8874,0,1.9092,1.9085,1.9073,1.9058,1.9048,1.9035,1.9021,1.9016,1.8995,1.8985,1.897,1.8959,1.8938,1.8921,1.8902,1.889,1.8878,1.8876,1.8875,1.8879,1.8886,1.8882,1.8873,1.8876,1.8876,1.8875,1.8875,1.8875,1.91,1.9094,1.9078,1.9065,1.9053,1.904,1.9032,1.9019,1.9006,1.8988,1.8978,1.8963,1.8945,1.8918,1.8906,1.8894,1.8889,1.8888,1.8887,1.8887,1.8888,1.8889,1.889,1.889,1.889,1.889,1.889,0,1.9107,1.9096,1.9084,1.9066,1.9055,1.9047,1.9031,1.9023,1.901,1.8995,1.8982,1.8964,1.8948,1.8929,1.8912,1.8905,1.8899,1.8901,1.8901,1.8898,1.8893,1.8896,1.8906,1.8906,1.8906,1.8906,1.8906,1.8906,1.9109,1.9098,1.9089,1.9071,1.906,1.9046,1.9038,1.9026,1.9014,1.8995,1.8982,1.8971,1.8954,1.8935,1.892,1.8915,1.8909,1.8912,1.8905,1.89,1.8899,1.8897,1.89,1.8911,1.8911,1.8911,1.8911,1.8911]}]]